(248545) = 2005 XR26

Discovered at Kitt Peak on 2005-12-04 by Spacewatch.

Orbit

Orbit type: Main Belt

Note: WebGL enabled browser required.

epoch2024-03-31.0
epoch JD2460400.5
perihelion date2023-02-13.55881
perihelion JD2459989.05881
argument of perihelion (°)192.83301
ascending node (°)286.52651
inclination (°)8.36307
eccentricity0.1152361
perihelion distance (AU)1.9993224
Tisserand w.r.t. Jupiter3.6
ΔV w.r.t. Earth (km/sec)9.1
semimajor axis (AU)2.2597242
mean anomaly (°)119.37914
mean daily motion (°/day)0.29014870
aphelion distance (AU)2.520
period (years)3.4
P-vector [x]-0.48802385
P-vector [y]0.81310761
P-vector [z]0.31731488
Q-vector [x]-0.86162062
Q-vector [y]-0.39071490
Q-vector [z]-0.32396261
absolute magnitude17.08
phase slope0.15
uncertainty0
referenceMPEC 2024-E11
observations used443
oppositions15
arc length (days)9935
first opposition used1995
last opposition used2023
residual rms (arc-secs)0.68
perturbers coarse indicatorM-v
perturbers precise indicator003Ek
first observation date used1995-11-30.0
last observation date used2023-02-11.0
computer nameMPCLINUX
JD of orbit computation2456847.735869
perihelion JD uncertainty (days)7.5314E-05
argument of perihelion uncertainty (°)3.4818E-05
ascending node uncertainty (°)2.8726E-05
inclination uncertainty (°)4.6559E-06
eccentricity uncertainty 6.3674E-08
perihelion distance uncertainty (AU)1.3887E-07
Minimum Orbit Intersection Distances (in AU)
for orbit epoch: 2460400.5, reference: E2024-E11
Mercury1.67681
Venus1.28315
Earth1.01688
Mars0.3837
Jupiter2.56712
Saturn7.00829
Uranus16.3762
Neptune27.5459

Observations

460 total observations over interval: 1995 11 30.47952 – 2023 02 11.126861
These data are available for download (format description).

Date (UT) J2000 RA J2000 Dec Magn Location Ref
1995 11 30.47952 09 41 12.12 +12 12 40.7 20.3 V 691 – Steward Observatory, Kitt Peak-Spacewatch MPS 161851
1995 11 30.50813 09 41 13.60 +12 12 23.7   691 – Steward Observatory, Kitt Peak-Spacewatch MPS 161851
1995 11 30.53672 09 41 15.01 +12 12 07.6   691 – Steward Observatory, Kitt Peak-Spacewatch MPS 161851
1996 02 18.30315 09 14 06.44 +05 42 16.1 12.9 V 691 – Steward Observatory, Kitt Peak-Spacewatch MPS 161851
1996 02 18.32414 09 14 04.83 +05 42 16.7   691 – Steward Observatory, Kitt Peak-Spacewatch MPS 161851
2001 10 13.17330 23 17 32.82 +10 16 30.1 20.3   644 – Palomar Mountain/NEAT MPS 161851
2001 10 13.19430 23 17 31.97 +10 16 21.3 21.1   644 – Palomar Mountain/NEAT MPS 161851
2001 10 13.21527 23 17 31.05 +10 16 13.5 21.2   644 – Palomar Mountain/NEAT MPS 161851
2003 03 28.25265 11 34 16.34 -13 46 27.2 19.0 R 699 – Lowell Observatory-LONEOS MPS 161851
2003 03 28.26696 11 34 15.56 -13 46 21.2   699 – Lowell Observatory-LONEOS MPS 161851
2003 03 28.28127 11 34 14.59 -13 46 16.3   699 – Lowell Observatory-LONEOS MPS 161851
2003 03 28.29556 11 34 13.77 -13 46 10.6   699 – Lowell Observatory-LONEOS MPS 161851
2005 12 04.43678 07 19 11.95 +26 13 01.2 19.7 V 691 – Steward Observatory, Kitt Peak-Spacewatch MPS 154116
2005 12 04.45754 07 19 11.24 +26 12 57.4 19.6 V 691 – Steward Observatory, Kitt Peak-Spacewatch MPS 154116
2005 12 04.47487 07 19 10.67 +26 12 54.0 19.7 V 691 – Steward Observatory, Kitt Peak-Spacewatch MPS 154116
2005 12 05.32774 07 18 44.17 +26 10 15.9 19.7   704 – Lincoln Laboratory ETS, New Mexico MPS 154116
2005 12 05.35378 07 18 43.23 +26 10 11.4 19.7   704 – Lincoln Laboratory ETS, New Mexico MPS 154116
2005 12 05.36661 07 18 42.87 +26 10 08.8 19.9   704 – Lincoln Laboratory ETS, New Mexico MPS 154116
2005 12 30.23169 06 55 05.15 +24 37 27.6 18.8 V 691 – Steward Observatory, Kitt Peak-Spacewatch MPS 157854
2005 12 30.25195 06 55 03.57 +24 37 22.3 19.1 V 691 – Steward Observatory, Kitt Peak-Spacewatch MPS 157854
2005 12 30.27221 06 55 02.04 +24 37 17.5 20.1 V 691 – Steward Observatory, Kitt Peak-Spacewatch MPS 157854
2005 12 31.33240 06 53 44.31 +24 32 26.8 18.6   704 – Lincoln Laboratory ETS, New Mexico MPS 157854
2005 12 31.34659 06 53 43.18 +24 32 22.4 18.9   704 – Lincoln Laboratory ETS, New Mexico MPS 157854
2005 12 31.35997 06 53 42.16 +24 32 18.6 18.9   704 – Lincoln Laboratory ETS, New Mexico MPS 157854
2005 12 31.37317 06 53 41.12 +24 32 14.9 19.4   704 – Lincoln Laboratory ETS, New Mexico MPS 157854
2005 12 31.38664 06 53 40.08 +24 32 11.0 18.9   704 – Lincoln Laboratory ETS, New Mexico MPS 157854
2006 01 05.17342 06 47 49.85 +24 09 21.2 19.2 V 691 – Steward Observatory, Kitt Peak-Spacewatch MPS 157854
2006 01 05.19073 06 47 48.55 +24 09 16.3 19.2 V 691 – Steward Observatory, Kitt Peak-Spacewatch MPS 157854
2006 01 05.20803 06 47 47.24 +24 09 11.5 19.1 V 691 – Steward Observatory, Kitt Peak-Spacewatch MPS 157854
2006 01 05.27621 06 47 42.01 +24 08 51.7 18.9   704 – Lincoln Laboratory ETS, New Mexico MPS 157854
2006 01 05.28906 06 47 41.01 +24 08 48.3 19.1   704 – Lincoln Laboratory ETS, New Mexico MPS 157854
2006 01 05.30192 06 47 40.04 +24 08 44.3 19.1   704 – Lincoln Laboratory ETS, New Mexico MPS 157854
2006 01 05.31480 06 47 39.06 +24 08 41.0 18.6   704 – Lincoln Laboratory ETS, New Mexico MPS 157854
2006 01 05.32792 06 47 38.14 +24 08 36.1 18.6   704 – Lincoln Laboratory ETS, New Mexico MPS 157854
2008 10 10.30152 01 38 46.17 +25 54 56.6 19.6 V G96 – Mt. Lemmon Survey MPS 259278
2008 10 10.30694 01 38 45.85 +25 54 55.4 19.6 V G96 – Mt. Lemmon Survey MPS 259278
2008 10 10.31243 01 38 45.49 +25 54 54.0 19.6 V G96 – Mt. Lemmon Survey MPS 259278
2008 10 10.31787 01 38 45.16 +25 54 52.7 19.8 V G96 – Mt. Lemmon Survey MPS 259278
2008 10 25.23078 01 23 09.34 +24 31 06.9 18.8 V 703 – Catalina Sky Survey MPS 261566
2008 10 25.24230 01 23 08.62 +24 30 59.4 19.8 V 703 – Catalina Sky Survey MPS 261566
2008 10 25.25380 01 23 07.80 +24 30 55.6 20.1 V 703 – Catalina Sky Survey MPS 261566
2008 10 25.26549 01 23 07.08 +24 30 48.8 19.5 V 703 – Catalina Sky Survey MPS 261566
2008 10 28.24855 01 20 05.13 +24 08 06.4 19.5   704 – Lincoln Laboratory ETS, New Mexico MPS 261566
2008 10 28.26005 01 20 04.38 +24 08 00.7 19.9   704 – Lincoln Laboratory ETS, New Mexico MPS 261566
2008 10 28.27169 01 20 03.68 +24 07 55.5 20.0   704 – Lincoln Laboratory ETS, New Mexico MPS 261566
2008 10 28.28320 01 20 02.90 +24 07 49.0 19.9   704 – Lincoln Laboratory ETS, New Mexico MPS 261566
2008 10 28.29498 01 20 02.19 +24 07 44.2 19.9   704 – Lincoln Laboratory ETS, New Mexico MPS 261566
2008 11 02.24591 01 15 18.79 +23 27 08.1 19.9 V 703 – Catalina Sky Survey MPS 263236
2008 11 02.25262 01 15 18.50 +23 27 04.6 19.8 V 703 – Catalina Sky Survey MPS 263236
2008 11 02.25931 01 15 18.07 +23 27 02.7 19.9 V 703 – Catalina Sky Survey MPS 263236
2008 11 02.26594 01 15 17.71 +23 26 56.9 19.9 V 703 – Catalina Sky Survey MPS 263236
2008 11 22.20297 01 02 46.68 +20 35 22.1 19.3 C 704 – Lincoln Laboratory ETS, New Mexico MPS 287982
2008 11 22.21569 01 02 46.20 +20 35 13.1 19.7 C 704 – Lincoln Laboratory ETS, New Mexico MPS 287982
2008 11 22.22808 01 02 45.90 +20 35 10.3 18.9 C 704 – Lincoln Laboratory ETS, New Mexico MPS 287982
2008 11 22.24060 01 02 45.79 +20 35 08.3 18.9 C 704 – Lincoln Laboratory ETS, New Mexico MPS 287982
2008 11 22.25299 01 02 45.66 +20 34 59.6 19.7 C 704 – Lincoln Laboratory ETS, New Mexico MPS 287982
2010 01 25.55086 14 00 00.72 -22 08 39.2   C51 – WISE MPS 334922
2010 01 25.683296 14 00 09.89 -22 09 59.3   C51 – WISE MPS 334922
2010 01 25.815600 14 00 19.09 -22 11 20.2   C51 – WISE MPS 334922
2010 01 25.947904 14 00 28.159 -22 12 40.46   C51 – WISE MPS 903754
2010 01 26.014120 14 00 32.66 -22 13 20.0   C51 – WISE MPS 334922
2010 01 26.08021 14 00 37.13 -22 13 59.8   C51 – WISE MPS 334922
2010 01 26.080336 14 00 37.14 -22 14 01.1   C51 – WISE MPS 334922
2010 01 26.146425 14 00 41.82 -22 14 41.2   C51 – WISE MPS 334922
2010 01 26.543465 14 01 08.87 -22 18 42.5   C51 – WISE MPS 334922
2010 07 23.202249 13 59 31.61 -19 39 58.8   C51 – WISE MPS 340742
2010 07 23.466855 13 59 49.10 -19 40 21.0   C51 – WISE MPS 340742
2010 07 23.532944 13 59 53.18 -19 40 24.5   C51 – WISE MPS 340742
2010 07 23.599160 13 59 57.89 -19 40 31.9   C51 – WISE MPS 340742
2010 07 23.731463 14 00 06.806 -19 40 41.84   C51 – WISE MPS 903754
2010 07 24.062160 14 00 28.77 -19 41 03.5   C51 – WISE MPS 340742
2010 07 24.194463 14 00 37.72 -19 41 14.0   C51 – WISE MPS 340742
2010 07 24.32677 14 00 46.49 -19 41 26.9   C51 – WISE MPS 340742
2010 07 24.459071 14 00 55.52 -19 41 35.3   C51 – WISE MPS 340742
2011 08 23.55364 22 20 32.144 +00 52 33.13 20.6 z F51 – Pan-STARRS 1, Haleakala MPS 389119
2011 08 23.56256 22 20 31.585 +00 52 31.56 20.7 z F51 – Pan-STARRS 1, Haleakala MPS 389119
2011 08 23.56554 22 20 31.395 +00 52 31.07 20.6 z F51 – Pan-STARRS 1, Haleakala MPS 389119
2011 08 23.57145 22 20 31.009 +00 52 30.08 20.6 z F51 – Pan-STARRS 1, Haleakala MPS 389119
2011 08 23.57441 22 20 30.832 +00 52 29.69 20.6 z F51 – Pan-STARRS 1, Haleakala MPS 389119
2011 08 24.52946 22 19 32.309 +00 49 53.18 20.6 g F51 – Pan-STARRS 1, Haleakala MPS 389119
2011 08 24.53095 22 19 32.223 +00 49 52.85 20.6 g F51 – Pan-STARRS 1, Haleakala MPS 389119
2011 08 24.53392 22 19 32.028 +00 49 52.36 20.6 g F51 – Pan-STARRS 1, Haleakala MPS 389119
2011 08 24.53689 22 19 31.836 +00 49 51.79 20.6 g F51 – Pan-STARRS 1, Haleakala MPS 389119
2011 08 24.54040 22 19 31.615 +00 49 51.29 20.3 r F51 – Pan-STARRS 1, Haleakala MPS 389119
2011 08 24.54337 22 19 31.427 +00 49 50.75 20.3 r F51 – Pan-STARRS 1, Haleakala MPS 389119
2011 08 24.54487 22 19 31.332 +00 49 50.53 20.3 r F51 – Pan-STARRS 1, Haleakala MPS 389119
2011 08 24.54786 22 19 31.145 +00 49 49.98 20.3 r F51 – Pan-STARRS 1, Haleakala MPS 389119
2011 08 25.00817 22 19 02.99 +00 48 29.2   621 – Bergisch Gladbach MPS 389119
2011 08 25.02049 22 19 02.16 +00 48 27.3   621 – Bergisch Gladbach MPS 389119
2011 08 25.03280 22 19 01.45 +00 48 25.3 20.3 V 621 – Bergisch Gladbach MPS 389119
2011 08 26.32680 22 17 41.861 +00 44 37.97 20.6 z F51 – Pan-STARRS 1, Haleakala MPS 390416
2011 08 26.32975 22 17 41.678 +00 44 37.44 20.5 z F51 – Pan-STARRS 1, Haleakala MPS 390416
